Home   Weather   Lynchburg   Past weeks

Flag for USA Past Weather in Lynchburg, Virginia, USA — Yesterday and Last 2 Weeks

Now
41 °F

Clear.


Feels Like: 37 °F
Forecast: 29 / 44 °F
Wind: 6 mph from Northwest

Location: Lynchburg Regional Airport

Current Time: Dec 8, 2016 at 6:57:50 pm

Latest Report: Dec 8, 2016 at 5:54 pm


Visibility: 10 mi

Pressure: 30.15 "Hg

Humidity: 27%

Dew Point: 9 °F

Location of LynchburgLocation

Past Weather in Lynchburg — Graph

°F

Lynchburg Temperature Yesterday

Maximum temperature yesterday: 56 °F (at 2:54 pm)
Minimum temperature yesterday: 30 °F (at 3:54 am)
Average temperature yesterday: 40 °F

High & Low Weather Summary for the Past Weeks

 TemperatureHumidityPressure
High69 °F (Nov 24, 2:54 pm)100% (Nov 29, 5:54 am)30.32 "Hg (Nov 29, 5:54 am)
Low24 °F (Nov 27, 6:54 am)24% (Dec 8, 4:54 pm)29.62 "Hg (Nov 30, 10:54 pm)
Average45 °F73%30.08 "Hg
* Reported Nov 23 4:54 pm — Dec 8 4:54 pm, Lynchburg, Weather by CustomWeather, © 2016

Note: Actual official high and low records may vary slightly from our data, if they occured in-between our weather recording intervals... More about our weather records

Advertising

Lynchburg Weather History for the Previous 24 Hours

Scroll right to see more
 ConditionsComfort  
Time TempWeatherWind HumidityBarometerVisibility
4:54 pm
Thu, Dec 8
42 °FSunny.9 mph24%30.13 "Hg10 mi
3:54 pm42 °FSunny.No wind45%30.11 "Hg10 mi
2:54 pm43 °FSunny.6 mph40%30.09 "Hg10 mi
1:54 pm43 °FSunny.10 mph38%30.09 "Hg10 mi
12:54 pm43 °FSunny.10 mph38%30.09 "Hg10 mi
11:54 am44 °FSunny.8 mph35%30.10 "Hg10 mi
10:54 am46 °FSunny.N/A35%30.11 "Hg10 mi
9:54 am44 °FPassing clouds.3 mph53%30.11 "Hg10 mi
8:54 am43 °FSunny.No wind60%30.09 "Hg10 mi
7:54 am39 °FOvercast.No wind76%30.07 "Hg10 mi
6:54 am38 °FOvercast.No wind90%30.06 "Hg10 mi
5:54 am39 °FOvercast.No wind89%30.04 "Hg10 mi
4:54 am37 °FOvercast.No wind96%30.02 "Hg10 mi
3:54 am36 °FPassing clouds.No wind92%30.02 "Hg10 mi
2:54 am36 °FPartly cloudy.No wind92%30.04 "Hg10 mi
1:54 am35 °FPassing clouds.No wind92%30.05 "Hg10 mi
12:54 am35 °FPassing clouds.No wind92%30.04 "Hg10 mi
11:54 pm
Wed, Dec 7
36 °FPassing clouds.No wind89%30.06 "Hg10 mi
10:54 pm35 °FClear.No wind88%30.09 "Hg10 mi
9:54 pm35 °FClear.No wind88%30.08 "Hg10 mi
8:54 pm37 °FClear.No wind82%30.07 "Hg10 mi
7:54 pm38 °FClear.No wind86%30.08 "Hg10 mi
6:54 pm40 °FClear.No wind77%30.09 "Hg10 mi
Weather by CustomWeather, © 2016

See weather overviewHow to use our weather pages